When you browse on this site, cookies collect data to enhance your experience and personalize the content and advertising you see.
Visit our Privacy Policy to learn more. By continuing to use the site, you agree to this use of cookies and data.
  • In Romania
  • List of Countries
  • For 7 days
  • Water Temperature
  • Satellite Maps
  • Weather Map
  • Weather Widgets
  • user-avatar
    Login

    Hourly Weather Mauritius

    Today, 18 January, Friday

    Time Temperature Precipitation Wind Pressure Humidity
    00:00 +26°C° 0.3 mm 3 mps 723 mmHg 84%
    01:00 +26°C° 0.3 mm 3 mps 723 mmHg 84%
    02:00 +26°C° 0.1 mm 3 mps 723 mmHg 84%
    03:00 +26°C° 0.1 mm 3 mps 723 mmHg 84%
    04:00 +26°C° 0 mm 3 mps 723 mmHg 85%
    05:00 +26°C° 0.2 mm 3 mps 723 mmHg 85%
    06:00 +26°C° 0.2 mm 3 mps 723 mmHg 84%
    07:00 +26°C° 0.2 mm 3 mps 723 mmHg 83%
    08:00 +27°C° 0.6 mm 3 mps 723 mmHg 79%
    09:00 +28°C° 0.6 mm 3 mps 723 mmHg 76%
    10:00 +29°C° 0.6 mm 4 mps 723 mmHg 72%
    11:00 +29°C° 0.3 mm 4 mps 723 mmHg 70%
    12:00 +30°C° 0.3 mm 4 mps 723 mmHg 67%
    13:00 +30°C° 0.3 mm 4 mps 723 mmHg 65%
    14:00 +30°C° 0 mm 4 mps 723 mmHg 64%
    15:00 +30°C° 0 mm 4 mps 722 mmHg 64%
    16:00 +30°C° 0 mm 4 mps 722 mmHg 64%
    17:00 +29°C° 0 mm 4 mps 722 mmHg 68%
    18:00 +28°C° 0 mm 3 mps 722 mmHg 71%
    19:00 +28°C° 0 mm 3 mps 722 mmHg 75%
    20:00 +27°C° 0 mm 3 mps 722 mmHg 77%
    21:00 +27°C° 0 mm 3 mps 723 mmHg 79%
    22:00 +27°C° 0 mm 3 mps 723 mmHg 82%
    23:00 +27°C° 0.3 mm 3 mps 723 mmHg 82%

    Tomorrow, 19 January, Saturday

    Time Temperature Precipitation Wind Pressure Humidity
    00:00 +26°C° 0.3 mm 3 mps 723 mmHg 83%
    01:00 +26°C° 0.3 mm 3 mps 723 mmHg 83%
    02:00 +26°C° 0.4 mm 3 mps 723 mmHg 84%
    03:00 +26°C° 0.4 mm 3 mps 722 mmHg 84%
    04:00 +26°C° 0.4 mm 3 mps 722 mmHg 84%
    05:00 +26°C° 0 mm 3 mps 723 mmHg 84%
    06:00 +26°C° 0 mm 3 mps 723 mmHg 83%
    07:00 +27°C° 0 mm 3 mps 723 mmHg 82%
    08:00 +27°C° 0 mm 3 mps 723 mmHg 79%
    09:00 +28°C° 0 mm 4 mps 724 mmHg 76%
    10:00 +29°C° 0 mm 4 mps 724 mmHg 72%
    11:00 +29°C° 0.2 mm 4 mps 723 mmHg 71%
    12:00 +29°C° 0.2 mm 4 mps 723 mmHg 70%
    13:00 +29°C° 0.2 mm 5 mps 723 mmHg 69%
    14:00 +29°C° 0 mm 5 mps 723 mmHg 68%
    15:00 +29°C° 0 mm 4 mps 722 mmHg 67%
    16:00 +29°C° 0 mm 4 mps 722 mmHg 67%
    17:00 +29°C° 0 mm 4 mps 722 mmHg 69%
    18:00 +28°C° 0 mm 4 mps 722 mmHg 72%
    19:00 +27°C° 0 mm 3 mps 722 mmHg 75%
    20:00 +27°C° 0 mm 3 mps 723 mmHg 77%
    21:00 +27°C° 0 mm 3 mps 723 mmHg 78%
    22:00 +26°C° 0 mm 3 mps 724 mmHg 80%
    23:00 +26°C° 0 mm 3 mps 723 mmHg 81%

    Day after tomorrow, 20 January, Sunday

    Time Temperature Precipitation Wind Pressure Humidity
    00:00 +26°C° 0 mm 3 mps 723 mmHg 82%
    01:00 +26°C° 0 mm 3 mps 723 mmHg 83%
    02:00 +26°C° 0 mm 4 mps 723 mmHg 83%
    03:00 +26°C° 0 mm 4 mps 722 mmHg 84%
    04:00 +26°C° 0 mm 4 mps 722 mmHg 85%
    05:00 +26°C° 0.1 mm 4 mps 723 mmHg 84%
    06:00 +26°C° 0.1 mm 4 mps 723 mmHg 83%
    07:00 +26°C° 0.1 mm 4 mps 723 mmHg 83%
    08:00 +27°C° 0.1 mm 4 mps 724 mmHg 79%
    09:00 +28°C° 0.1 mm 4 mps 724 mmHg 75%
    10:00 +28°C° 0.1 mm 5 mps 724 mmHg 71%
    11:00 +29°C° 0 mm 5 mps 724 mmHg 68%
    12:00 +29°C° 0 mm 5 mps 723 mmHg 65%
    13:00 +30°C° 0 mm 5 mps 723 mmHg 61%
    14:00 +30°C° 0 mm 5 mps 723 mmHg 62%
    15:00 +30°C° 0 mm 5 mps 723 mmHg 63%
    16:00 +29°C° 0 mm 5 mps 722 mmHg 64%
    17:00 +29°C° 0 mm 4 mps 723 mmHg 68%
    18:00 +28°C° 0 mm 4 mps 723 mmHg 71%
    19:00 +27°C° 0 mm 4 mps 723 mmHg 75%
    20:00 +27°C° 0 mm 4 mps 724 mmHg 76%
    21:00 +27°C° 0 mm 4 mps 724 mmHg 78%
    22:00 +27°C° 0 mm 4 mps 725 mmHg 79%
    23:00 +26°C° 0 mm 4 mps 724 mmHg 80%

    21 January, Monday

    Time Temperature Precipitation Wind Pressure Humidity
    00:00 +26°C° 0 mm 4 mps 724 mmHg 81%
    01:00 +26°C° 0 mm 4 mps 723 mmHg 82%
    02:00 +26°C° 0.1 mm 4 mps 723 mmHg 82%
    03:00 +26°C° 0.1 mm 4 mps 723 mmHg 82%
    04:00 +26°C° 0.1 mm 5 mps 723 mmHg 82%
    05:00 +26°C° 0 mm 4 mps 723 mmHg 81%
    06:00 +26°C° 0 mm 4 mps 723 mmHg 79%
    07:00 +26°C° 0 mm 4 mps 724 mmHg 77%
    08:00 +27°C° 0 mm 4 mps 724 mmHg 75%
    09:00 +27°C° 0 mm 5 mps 724 mmHg 72%
    10:00 +28°C° 0 mm 5 mps 725 mmHg 70%
    11:00 +29°C° 0 mm 5 mps 724 mmHg 66%
    12:00 +29°C° 0 mm 5 mps 724 mmHg 63%
    13:00 +30°C° 0 mm 5 mps 724 mmHg 59%
    14:00 +29°C° 0 mm 5 mps 723 mmHg 59%
    15:00 +29°C° 0 mm 4 mps 723 mmHg 59%
    16:00 +29°C° 0 mm 4 mps 723 mmHg 59%
    17:00 +28°C° 0 mm 4 mps 723 mmHg 64%
    18:00 +28°C° 0 mm 4 mps 723 mmHg 69%
    19:00 +27°C° 0 mm 4 mps 723 mmHg 75%
    20:00 +27°C° 0.3 mm 4 mps 724 mmHg 76%
    21:00 +27°C° 0.3 mm 4 mps 724 mmHg 77%
    22:00 +26°C° 0.3 mm 4 mps 724 mmHg 77%
    23:00 +26°C° 0.3 mm 4 mps 724 mmHg 78%

    22 January, Tuesday

    Time Temperature Precipitation Wind Pressure Humidity
    00:00 +26°C° 0.3 mm 4 mps 724 mmHg 78%
    01:00 +26°C° 0.3 mm 3 mps 724 mmHg 79%
    02:00 +26°C° 0.1 mm 3 mps 723 mmHg 80%
    03:00 +26°C° 0.1 mm 4 mps 723 mmHg 81%
    04:00 +26°C° 0.1 mm 4 mps 723 mmHg 82%
    05:00 +26°C° 0.1 mm 4 mps 723 mmHg 82%
    06:00 +26°C° 0.1 mm 4 mps 724 mmHg 82%
    07:00 +26°C° 0.1 mm 4 mps 724 mmHg 82%
    08:00 +27°C° 0 mm 5 mps 724 mmHg 78%
    09:00 +28°C° 0 mm 5 mps 724 mmHg 73%
    10:00 +29°C° 0 mm 5 mps 724 mmHg 69%
    11:00 +29°C° 0 mm 5 mps 724 mmHg 67%
    12:00 +30°C° 0 mm 5 mps 724 mmHg 64%
    13:00 +30°C° 0 mm 5 mps 724 mmHg 62%
    14:00 +30°C° 0 mm 5 mps 723 mmHg 63%
    15:00 +30°C° 0 mm 4 mps 723 mmHg 63%
    16:00 +30°C° 0 mm 4 mps 723 mmHg 64%
    17:00 +29°C° 0.1 mm 4 mps 723 mmHg 67%
    18:00 +28°C° 0.1 mm 4 mps 724 mmHg 71%
    19:00 +27°C° 0.1 mm 4 mps 724 mmHg 75%
    20:00 +27°C° 0 mm 4 mps 724 mmHg 76%
    21:00 +27°C° 0 mm 4 mps 725 mmHg 78%
    22:00 +27°C° 0 mm 5 mps 725 mmHg 79%
    23:00 +26°C° 0 mm 5 mps 724 mmHg 80%

    23 January, Wednesday

    Time Temperature Precipitation Wind Pressure Humidity
    00:00 +26°C° 0 mm 5 mps 724 mmHg 81%
    01:00 +26°C° 0 mm 4 mps 724 mmHg 81%
    02:00 +26°C° 0 mm 4 mps 723 mmHg 81%
    03:00 +26°C° 0 mm 4 mps 723 mmHg 81%
    04:00 +25°C° 0 mm 4 mps 723 mmHg 80%
    05:00 +26°C° 0 mm 4 mps 723 mmHg 79%
    06:00 +26°C° 0 mm 4 mps 724 mmHg 78%
    07:00 +26°C° 0 mm 4 mps 724 mmHg 77%
    08:00 +27°C° 0 mm 4 mps 724 mmHg 73%
    09:00 +28°C° 0 mm 4 mps 724 mmHg 69%
    10:00 +29°C° 0 mm 4 mps 725 mmHg 65%
    11:00 +29°C° 0 mm 4 mps 724 mmHg 64%
    12:00 +29°C° 0 mm 4 mps 724 mmHg 63%
    13:00 +30°C° 0 mm 5 mps 724 mmHg 62%
    14:00 +30°C° 0 mm 4 mps 723 mmHg 60%
    15:00 +30°C° 0 mm 4 mps 723 mmHg 58%
    16:00 +30°C° 0 mm 4 mps 723 mmHg 56%
    17:00 +29°C° 0 mm 4 mps 723 mmHg 61%
    18:00 +28°C° 0 mm 4 mps 723 mmHg 66%
    19:00 +27°C° 0 mm 4 mps 723 mmHg 71%
    20:00 +27°C° 0 mm 4 mps 724 mmHg 73%
    21:00 +27°C° 0 mm 4 mps 724 mmHg 75%
    22:00 +27°C° 0 mm 4 mps 724 mmHg 78%
    23:00 +26°C° 0 mm 3 mps 724 mmHg 79%
    Show more